• In Hungary
  • List of Countries
  • For 7 days
  • Water Temperature
  • Satellite Maps
  • Weather Map
  • News
  • Weather Widgets
  • user-avatar
    Login

    Hourly Weather Prambanan

    Today, 17 December, Sunday

    Time Temperature Precipitation Wind Pressure Humidity
    00:00 +26°C° 0.1 mm 1 mps 743 mmHg 90%
    01:00 +26°C° 0 mm 1 mps 743 mmHg 89%
    02:00 +26°C° 0 mm 1 mps 743 mmHg 89%
    03:00 +26°C° 0 mm 1 mps 743 mmHg 88%
    04:00 +26°C° 0 mm 1 mps 743 mmHg 88%
    05:00 +27°C° 0 mm 1 mps 743 mmHg 85%
    06:00 +27°C° 0 mm 1 mps 743 mmHg 82%
    07:00 +28°C° 0 mm 2 mps 744 mmHg 79%
    08:00 +29°C° 0.1 mm 2 mps 744 mmHg 74%
    09:00 +31°C° 0.1 mm 3 mps 744 mmHg 70%
    10:00 +33°C° 0.1 mm 3 mps 744 mmHg 65%
    11:00 +33°C° 1.1 mm 3 mps 744 mmHg 67%
    12:00 +33°C° 1.1 mm 4 mps 743 mmHg 69%
    13:00 +32°C° 1.1 mm 4 mps 743 mmHg 71%
    14:00 +32°C° 1.7 mm 4 mps 743 mmHg 75%
    15:00 +30°C° 1.7 mm 4 mps 742 mmHg 78%
    16:00 +29°C° 1.7 mm 4 mps 742 mmHg 82%
    17:00 +28°C° 1.7 mm 3 mps 742 mmHg 85%
    18:00 +28°C° 1.7 mm 3 mps 743 mmHg 87%
    19:00 +27°C° 1.7 mm 3 mps 743 mmHg 90%
    20:00 +27°C° 0.5 mm 2 mps 743 mmHg 90%
    21:00 +26°C° 0.5 mm 2 mps 744 mmHg 90%
    22:00 +26°C° 0.5 mm 2 mps 744 mmHg 89%
    23:00 +26°C° 0.2 mm 2 mps 743 mmHg 89%

    Tomorrow, 18 December, Monday

    Time Temperature Precipitation Wind Pressure Humidity
    00:00 +26°C° 0.2 mm 2 mps 743 mmHg 88%
    01:00 +26°C° 0.2 mm 2 mps 743 mmHg 88%
    02:00 +26°C° 0.1 mm 2 mps 743 mmHg 88%
    03:00 +25°C° 0.1 mm 2 mps 742 mmHg 87%
    04:00 +25°C° 0.1 mm 2 mps 742 mmHg 87%
    05:00 +26°C° 0.1 mm 2 mps 742 mmHg 86%
    06:00 +27°C° 0.1 mm 2 mps 743 mmHg 84%
    07:00 +27°C° 0.1 mm 2 mps 743 mmHg 83%
    08:00 +29°C° 0.5 mm 3 mps 743 mmHg 79%
    09:00 +30°C° 0.5 mm 3 mps 743 mmHg 75%
    10:00 +31°C° 0.5 mm 3 mps 744 mmHg 70%
    11:00 +32°C° 1.5 mm 4 mps 743 mmHg 72%
    12:00 +32°C° 1.5 mm 4 mps 743 mmHg 73%
    13:00 +32°C° 1.5 mm 4 mps 743 mmHg 75%
    14:00 +30°C° 2 mm 4 mps 742 mmHg 78%
    15:00 +29°C° 2 mm 4 mps 742 mmHg 81%
    16:00 +28°C° 2 mm 4 mps 742 mmHg 84%
    17:00 +28°C° 1.1 mm 3 mps 742 mmHg 86%
    18:00 +27°C° 1.1 mm 3 mps 743 mmHg 89%
    19:00 +27°C° 1.1 mm 2 mps 743 mmHg 91%
    20:00 +26°C° 0.6 mm 2 mps 744 mmHg 91%
    21:00 +26°C° 0.6 mm 2 mps 744 mmHg 92%
    22:00 +26°C° 0.6 mm 2 mps 744 mmHg 92%
    23:00 +26°C° 0.5 mm 2 mps 744 mmHg 92%

    Day after tomorrow, 19 December, Tuesday

    Time Temperature Precipitation Wind Pressure Humidity
    00:00 +26°C° 0.5 mm 2 mps 743 mmHg 92%
    01:00 +26°C° 0.5 mm 2 mps 743 mmHg 92%
    02:00 +26°C° 0.5 mm 2 mps 743 mmHg 92%
    03:00 +25°C° 0.5 mm 2 mps 742 mmHg 91%
    04:00 +25°C° 0.5 mm 2 mps 742 mmHg 91%
    05:00 +26°C° 0.3 mm 2 mps 742 mmHg 89%
    06:00 +26°C° 0.3 mm 2 mps 743 mmHg 87%
    07:00 +27°C° 0.3 mm 2 mps 743 mmHg 85%
    08:00 +28°C° 0.1 mm 2 mps 743 mmHg 79%
    09:00 +30°C° 0.1 mm 3 mps 744 mmHg 73%
    10:00 +31°C° 0.1 mm 3 mps 744 mmHg 68%
    11:00 +31°C° 0.4 mm 3 mps 743 mmHg 67%
    12:00 +31°C° 0.4 mm 3 mps 743 mmHg 66%
    13:00 +33°C° 0.4 mm 3 mps 742 mmHg 66%
    14:00 +31°C° 1.1 mm 3 mps 742 mmHg 69%
    15:00 +30°C° 1.1 mm 3 mps 741 mmHg 73%
    16:00 +30°C° 1.1 mm 3 mps 741 mmHg 77%
    17:00 +29°C° 1.1 mm 3 mps 742 mmHg 81%
    18:00 +28°C° 1.1 mm 2 mps 742 mmHg 85%
    19:00 +27°C° 1.1 mm 2 mps 743 mmHg 88%
    20:00 +27°C° 0.4 mm 2 mps 743 mmHg 89%
    21:00 +27°C° 0.4 mm 2 mps 744 mmHg 90%
    22:00 +27°C° 0.4 mm 2 mps 744 mmHg 91%
    23:00 +27°C° 0.9 mm 2 mps 743 mmHg 92%

    20 December, Wednesday

    Time Temperature Precipitation Wind Pressure Humidity
    00:00 +26°C° 0.9 mm 2 mps 743 mmHg 92%
    01:00 +26°C° 0.9 mm 2 mps 742 mmHg 93%
    02:00 +26°C° 1 mm 1 mps 742 mmHg 93%
    03:00 +26°C° 1 mm 1 mps 742 mmHg 93%
    04:00 +26°C° 1 mm 1 mps 742 mmHg 94%
    05:00 +26°C° 0.9 mm 1 mps 742 mmHg 92%
    06:00 +27°C° 0.9 mm 1 mps 743 mmHg 90%
    07:00 +27°C° 0.9 mm 1 mps 743 mmHg 88%
    08:00 +29°C° 0.6 mm 1 mps 744 mmHg 83%
    09:00 +30°C° 0.6 mm 1 mps 744 mmHg 78%
    10:00 +31°C° 0.6 mm 1 mps 744 mmHg 73%
    11:00 +31°C° 1.5 mm 2 mps 743 mmHg 73%
    12:00 +31°C° 1.5 mm 2 mps 742 mmHg 73%
    13:00 +31°C° 1.5 mm 3 mps 742 mmHg 73%
    14:00 +31°C° 1.9 mm 3 mps 741 mmHg 76%
    15:00 +30°C° 1.9 mm 3 mps 741 mmHg 79%
    16:00 +29°C° 1.9 mm 3 mps 741 mmHg 82%
    17:00 +29°C° 1.7 mm 2 mps 741 mmHg 85%
    18:00 +28°C° 1.7 mm 2 mps 742 mmHg 89%
    19:00 +27°C° 1.7 mm 2 mps 743 mmHg 92%
    20:00 +27°C° 1.8 mm 2 mps 743 mmHg 93%
    21:00 +27°C° 1.8 mm 2 mps 743 mmHg 93%
    22:00 +27°C° 1.8 mm 2 mps 743 mmHg 93%
    23:00 +27°C° 3.1 mm 2 mps 743 mmHg 93%

    21 December, Thursday

    Time Temperature Precipitation Wind Pressure Humidity
    00:00 +27°C° 3.1 mm 2 mps 742 mmHg 94%
    01:00 +26°C° 3.1 mm 2 mps 742 mmHg 94%
    02:00 +26°C° 4 mm 2 mps 742 mmHg 94%
    03:00 +26°C° 4 mm 2 mps 742 mmHg 93%
    04:00 +26°C° 4 mm 2 mps 742 mmHg 93%
    05:00 +26°C° 1.9 mm 3 mps 742 mmHg 92%
    06:00 +27°C° 1.9 mm 3 mps 743 mmHg 91%
    07:00 +27°C° 1.9 mm 3 mps 743 mmHg 89%
    08:00 +28°C° 0.4 mm 3 mps 744 mmHg 85%
    09:00 +29°C° 0.4 mm 3 mps 744 mmHg 81%
    10:00 +29°C° 0.4 mm 4 mps 744 mmHg 76%
    11:00 +30°C° 0.2 mm 4 mps 743 mmHg 73%
    12:00 +32°C° 0.2 mm 4 mps 742 mmHg 69%
    13:00 +32°C° 0.2 mm 4 mps 742 mmHg 66%
    14:00 +32°C° 0.1 mm 4 mps 741 mmHg 70%
    15:00 +30°C° 0.1 mm 4 mps 741 mmHg 73%
    16:00 +29°C° 0.1 mm 4 mps 741 mmHg 77%
    17:00 +28°C° 0.1 mm 3 mps 741 mmHg 81%
    18:00 +28°C° 0.1 mm 3 mps 742 mmHg 85%
    19:00 +27°C° 0.1 mm 2 mps 742 mmHg 89%
    20:00 +27°C° 0.1 mm 2 mps 742 mmHg 90%
    21:00 +26°C° 0.1 mm 2 mps 743 mmHg 91%
    22:00 +26°C° 0.1 mm 2 mps 743 mmHg 92%
    23:00 +26°C° 0.1 mm 2 mps 742 mmHg 92%

    22 December, Friday

    Time Temperature Precipitation Wind Pressure Humidity
    00:00 +26°C° 0.1 mm 2 mps 742 mmHg 92%
    01:00 +26°C° 0.1 mm 2 mps 741 mmHg 92%
    02:00 +26°C° 0.1 mm 2 mps 741 mmHg 91%
    03:00 +25°C° 0.1 mm 2 mps 741 mmHg 91%
    04:00 +25°C° 0.1 mm 2 mps 741 mmHg 90%
    05:00 +26°C° 0.3 mm 2 mps 742 mmHg 88%
    06:00 +26°C° 0.3 mm 2 mps 742 mmHg 86%
    07:00 +27°C° 0.3 mm 3 mps 743 mmHg 84%
    08:00 +28°C° 0.3 mm 3 mps 743 mmHg 81%
    09:00 +29°C° 0.3 mm 3 mps 743 mmHg 78%
    10:00 +29°C° 0.3 mm 3 mps 743 mmHg 75%
    11:00 +29°C° 0.5 mm 3 mps 742 mmHg 75%
    12:00 +29°C° 0.5 mm 3 mps 742 mmHg 75%
    13:00 +29°C° 0.5 mm 3 mps 741 mmHg 75%
    14:00 +29°C° 0.6 mm 3 mps 741 mmHg 78%
    15:00 +28°C° 0.6 mm 3 mps 741 mmHg 80%
    16:00 +28°C° 0.6 mm 2 mps 740 mmHg 83%
    17:00 +27°C° 0.5 mm 2 mps 741 mmHg 85%
    18:00 +27°C° 0.5 mm 2 mps 741 mmHg 86%
    19:00 +26°C° 0.5 mm 1 mps 742 mmHg 88%
    20:00 +26°C° 0.3 mm 1 mps 742 mmHg 89%
    21:00 +26°C° 0.3 mm 1 mps 742 mmHg 90%
    22:00 +26°C° 0.3 mm 1 mps 742 mmHg 90%
    23:00 +26°C° 0.2 mm 1 mps 742 mmHg 90%
    Show more